CAPE
0 0 0 0 0 0 0 3 6 0 0 7 233 359 345 638 583 459 317 195 268 250 200 114 292 411 689 957 1105 766 1019 1191 1102 1038 796 1054 1309 1846 1704 1800 2168 2072 1791 1225
0 0 0 0 0 0 1 1 2 7 0 7 68 97 88 437 644 609 482 334 297 331 350 339 194 99 473 870 961 1102 838 925 997 1026 1151 1350 1629 1961 1982 2237 2041 1611 1389 1673
0 0 0 0 0 0 0 4 5 1 0 0 0 93 36 504 620 544 400 507 402 390 382 385 516 193 203 460 785 899 1106 1029 956 1042 1466 1913 2118 1750 1803 1753 1537 1341 1486 1300
0 0 0 0 0 0 0 0 0 0 0 0 0 99 197 41 405 761 550 377 539 638 627 742 801 488 332 332 511 817 1038 1104 1207 1397 1520 2078 2931 2806 2486 1478 1224 1598 1458 1312
0 0 0 0 0 0 0 0 0 0 0 0 0 16 56 47 272 470 769 727 506 741 740 821 790 640 476 345 463 648 949 1195 1508 1653 1935 1969 2304 2343 1843 1990 1771 1410 1474 1568
0 0 0 0 0 0 0 0 0 0 0 26 4 6 74 47 186 300 487 660 757 594 600 543 701 738 674 482 534 673 948 1269 1490 2165 2138 2386 2396 2608 2176 1803 1902 1592 1174 660
0 0 0 0 0 0 0 0 0 0 0 47 1 0 130 68 1 16 63 434 558 620 579 480 357 514 898 667 575 700 973 1071 1088 1198 2337 2564 2629 2475 2275 1982 1435 853 301 71
0 0 0 0 0 0 0 0 0 0 6 45 0 11 27 4 0 0 1 188 565 572 560 532 433 530 913 901 726 744 927 1155 1232 1197 1571 2656 2714 2323 1866 1485 716 289 102 347
0 0 0 0 0 0 0 0 0 0 0 0 0 3 6 0 28 5 0 26 566 663 539 536 466 658 826 1035 979 964 1054 1234 1510 1378 1584 2292 2572 2291 1561 907 547 336 643 676
0 0 0 0 0 0 0 0 0 0 0 0 9 34 62 284 212 81 44 40 157 707 560 421 547 817 872 988 1132 1147 1199 1441 1820 1776 1599 2369 2658 2216 1568 840 517 610 838 1028
0 0 0 0 0 0 0 0 0 0 0 0 0 1 190 311 298 90 43 251 199 399 565 380 484 871 1441 1483 1410 1449 1435 1568 2002 1867 2288 2749 2707 2027 1269 711 488 787 1090 1072
0 0 0 0 0 0 0 0 0 0 0 0 0 8 0 3 169 68 125 365 414 485 633 448 481 643 1430 1940 2061 2077 1758 1768 2107 2518 2870 2732 1939 1638 990 344 551 874 1010 792
0 0 0 0 0 0 0 0 0 0 0 2 0 0 44 45 321 250 284 507 1041 806 839 818 606 1124 1576 2557 2828 2568 2237 1967 1745 1817 1975 1721 1435 1150 322 430 721 1054 1097 765
0 0 0 0 0 0 0 0 0 0 12 2 0 18 58 70 195 235 425 651 1059 1268 1088 1210 1464 1857 2617 2859 2364 1812 1511 1191 1073 1151 934 1165 1106 499 255 795 1245 1217 748 216
9 0 0 0 0 0 0 0 0 0 16 16 7 34 139 166 73 98 219 725 1201 1435 1174 1692 1910 2544 2643 1966 2048 1796 1299 595 165 350 448 457 394 344 961 1236 1095 400 212 68
5 70 0 32 0 0 0 0 0 0 0 0 0 22 77 14 22 257 456 724 1138 1452 1197 1600 2294 2689 1818 1826 1820 1332 598 164 12 23 327 554 201 466 1056 504 421 263 118 15
74 130 173 45 2 0 0 0 0 0 0 0 0 0 103 199 440 482 662 873 1019 1272 1268 1075 1477 2579 2298 1796 1547 980 469 52 30 9 56 267 711 564 423 425 308 171 79 6
174 152 122 37 74 57 0 0 0 0 0 0 0 34 181 325 234 456 606 862 1100 989 1123 1636 1941 2324 1908 1776 1590 955 720 323 159 59 58 554 802 535 506 357 208 99 71 0
170 141 198 139 139 21 23 37 13 33 6 70 65 126 543 416 227 507 1300 1049 1022 947 1201 1642 2106 2185 1849 1668 1240 950 334 388 189 105 158 741 737 547 396 231 144 158 4 0
83 129 140 48 49 4 0 204 266 266 38 181 928 862 964 324 362 693 1667 1846 1635 798 1096 2086 2017 1684 1722 1783 1418 724 572 577 756 834 797 899 728 544 275 152 158 14 0 0
227 167 277 232 116 78 1 116 198 92 221 705 1011 1020 419 465 610 1307 1645 1925 1639 1035 1766 1978 1472 1715 1738 1528 907 162 212 776 1048 1023 766 585 564 379 188 136 5 0 0 0
454 431 489 127 132 91 137 417 403 347 611 911 1136 818 557 803 1610 1871 1887 2048 1702 1268 1912 1682 1662 2035 1735 1263 717 647 609 565 568 630 542 515 423 276 88 2 0 0 0 0
353 577 652 599 539 273 127 129 143 274 624 928 1102 907 862 1893 2084 1736 1783 2173 1762 1588 1628 1422 2043 1633 890 576 650 681 304 237 329 396 402 240 77 88 5 0 0 0 0 0
126 57 517 455 732 550 169 57 83 275 752 550 1022 855 607 571 825 1808 2069 1782 1814 1724 1652 1592 1477 1121 874 501 574 489 429 281 317 412 270 109 17 0 0 0 0 0 0 0
154 179 455 403 325 241 67 71 112 235 527 506 659 591 487 465 987 1922 1579 2134 2098 2038 1915 1740 1394 1351 1355 851 788 650 449 573 512 496 155 34 0 0 0 0 0 0 6 4
34 493 408 193 376 283 131 71 60 116 176 280 593 603 1087 1277 1716 1647 1367 1387 1688 1643 1455 1456 1347 1305 1041 869 653 627 800 773 413 72 4 0 0 0 0 0 3 12 22 0
CIN
-0 -0 -0 -0 -0 -0 -0 -8 -3 -0 -0 -21 -81 -77 -76 -240 -290 -184 -157 -325 -85 -77 -77 -81 -198 -148 -119 -103 -96 -151 -125 -129 -121 -114 -85 -59 -40 -23 -25 -20 -23 -27 -29 -39
-0 -0 -0 -0 -0 -0 -1 -2 -6 -5 -0 -25 -136 -93 -148 -218 -270 -270 -252 -258 -268 -97 -128 -215 -245 -90 -162 -130 -157 -130 -154 -149 -138 -91 -75 -49 -38 -32 -33 -32 -35 -49 -41 -25
-0 -0 -0 -0 -0 -0 -0 -4 -4 -1 -0 -0 -0 -88 -176 -250 -329 -347 -352 -253 -245 -247 -113 -85 -193 -109 -249 -191 -190 -179 -154 -143 -136 -123 -72 -34 -42 -61 -40 -40 -54 -54 -35 -39
-0 -0 -0 -0 -0 -0 -0 -0 -0 -0 -0 -0 -0 -44 -79 -292 -253 -361 -335 -318 -263 -255 -200 -153 -130 -212 -99 -225 -211 -201 -177 -146 -117 -106 -67 -35 -10 -4 -17 -30 -68 -48 -42 -36
-0 -0 -0 -0 -0 -0 -0 -0 -0 -0 -0 -0 -3 -104 -44 -292 -60 -106 -287 -261 -266 -257 -175 -193 -181 -195 -90 -238 -242 -228 -197 -148 -115 -103 -52 -25 -21 -28 -31 -31 -42 -54 -37 -18
-0 -0 -0 -0 -0 -0 -0 -0 -0 -0 -0 -37 -26 -95 -27 -52 -62 -84 -232 -252 -231 -268 -291 -261 -205 -209 -255 -68 -280 -242 -218 -175 -136 -65 -38 -17 -20 -10 -31 -28 -17 -22 -27 -38
-0 -0 -0 -0 -0 -0 -0 -0 -0 -0 -0 -46 -27 -0 -35 -71 -71 -87 -184 -206 -258 -233 -287 -292 -313 -261 -248 -282 -293 -263 -247 -212 -54 -146 -27 -14 -11 -18 -20 -19 -22 -33 -51 -74
-0 -0 -0 -0 -0 -0 -0 -0 -0 -0 -74 -37 -0 -39 -98 -14 -0 -0 -20 -265 -252 -278 -276 -282 -288 -283 -253 -257 -298 -279 -255 -194 -187 -29 -109 -8 -8 -17 -21 -40 -40 -69 -82 -44
-0 -0 -0 -0 -0 -0 -0 -0 -0 -0 -0 -0 -0 -7 -11 -0 -170 -23 -0 -321 -228 -229 -295 -295 -278 -266 -270 -275 -251 -244 -244 -194 -144 -151 -116 -28 -8 -24 -49 -73 -69 -78 -41 -26
-0 -0 -0 -0 -0 -0 -0 -0 -0 -0 -0 -0 -30 -78 -59 -36 -35 -63 -142 -206 -167 -215 -321 -308 -290 -265 -282 -238 -240 -223 -211 -189 -125 -106 -106 -26 -8 -24 -31 -38 -87 -58 -31 -14
-0 -0 -0 -0 -0 -0 -0 -0 -0 -0 -0 -0 -0 -28 -70 -44 -41 -116 -150 -174 -230 -228 -310 -100 -251 -293 -238 -232 -228 -215 -208 -167 -110 -109 -49 -3 -5 -16 -49 -27 -63 -32 -17 -13
-0 -0 -0 -0 -0 -0 -0 -0 -0 -0 -0 -0 -0 -94 -0 -35 -137 -226 -184 -185 -268 -304 -303 -351 -20 -342 -244 -223 -191 -162 -165 -130 -94 -56 -26 -7 -44 -16 -23 -89 -43 -25 -19 -19
-0 -0 -0 -0 -0 -0 -0 -0 -0 -0 -0 -26 -0 -0 -99 -171 -177 -258 -262 -238 -243 -337 -368 -339 -176 -322 -219 -113 -82 -105 -111 -61 -40 -53 -51 -46 -31 -26 -91 -53 -33 -22 -9 -9
-0 -0 -0 -0 -0 -0 -0 -0 -0 -0 -6 -9 -0 -28 -62 -52 -125 -154 -248 -331 -256 -328 -320 -282 -285 -246 -150 -96 -117 -181 -109 -79 -131 -104 -85 -37 -23 -37 -93 -38 -14 -7 -25 -54
-21 -0 -0 -0 -0 -0 -0 -0 -0 -23 -34 -14 -12 -88 -24 -55 -110 -175 -298 -391 -325 -315 -349 -295 -233 -164 -159 -179 -111 -96 -57 -54 -59 -317 -122 -50 -9 -80 -48 -18 -14 -54 -53 -58
-17 -58 -2 -69 -0 -0 -0 -0 -0 -0 -0 -0 -0 -57 -52 -124 -192 -379 -445 -355 -263 -292 -319 -321 -210 -142 -251 -158 -105 -95 -59 -130 -164 -258 -43 -21 -36 -11 -22 -48 -40 -49 -42 -11
-130 -56 -51 -19 -47 -0 -0 -0 -0 -0 -0 -0 -0 -0 -80 -110 -177 -260 -356 -351 -262 -259 -303 -324 -262 -116 -141 -130 -132 -47 -62 -445 -596 -241 -174 -25 -40 -8 -35 -36 -22 -52 -38 -7
-112 -133 -125 -15 -64 -15 -0 -0 -0 -0 -0 -0 -0 -106 -123 -151 -253 -358 -467 -340 -332 -351 -336 -247 -190 -117 -133 -131 -116 -79 -72 -64 -119 -335 -119 -36 -10 -6 -13 -31 -32 -28 -21 -0
-49 -45 -39 -25 -15 -63 -47 -126 -73 -67 -28 -72 -77 -92 -125 -243 -356 -252 -493 -492 -422 -410 -355 -250 -170 -140 -154 -131 -115 -117 -62 -55 -45 -32 -148 -35 -15 -6 -25 -34 -27 -20 -1 -0
-67 -37 -21 -33 -30 -12 -0 -167 -311 -256 -18 -54 -102 -57 -124 -307 -118 -47 -508 -420 -436 -486 -436 -269 -276 -292 -215 -137 -124 -114 -245 -135 -113 -28 -47 -24 -5 -6 -17 -39 -32 -23 -0 -0
-58 -88 -19 -9 -13 -38 -14 -266 -338 -32 -55 -326 -170 -152 -238 -244 -326 -521 -539 -461 -433 -509 -393 -352 -392 -245 -228 -272 -199 -358 -468 -248 -105 -45 -55 -33 -0 -7 -26 -30 -18 -0 -0 -0
-35 -18 -19 -83 -37 -29 -237 -166 -80 -256 -342 -322 -275 -338 -337 -343 -311 -349 -398 -378 -428 -118 -370 -427 -362 -240 -224 -296 -419 -436 -393 -220 -138 -47 -22 -19 -21 -50 -30 -23 -0 -0 -0 -0
-67 -78 -25 -49 -22 -223 -263 -226 -228 -143 -192 -315 -295 -353 -366 -190 -137 -252 -301 -252 -323 -349 -120 -221 -232 -291 -126 -142 -402 -329 -338 -252 -128 -67 -54 -72 -86 -33 -83 -0 -0 -0 -0 -0
-254 -329 -107 -123 -97 -122 -164 -250 -290 -93 -110 -237 -230 -298 -331 -253 -246 -168 -161 -256 -174 -128 -193 -91 -256 -110 -135 -134 -287 -79 -74 -78 -116 -51 -39 -43 -47 -0 -0 -0 -0 -0 -0 -0
-173 -251 -135 -138 -135 -140 -112 -193 -69 -78 -74 -135 -253 -239 -238 -272 -211 -123 -167 -96 -103 -98 -104 -74 -96 -88 -101 -123 -78 -60 -56 -52 -19 -21 -45 -58 -0 -0 -0 -0 -0 -0 -5 -2
-231 -83 -35 -37 -92 -111 -113 -159 -41 -173 -83 -67 -124 -207 -194 -183 -169 -161 -201 -106 -79 -116 -119 -95 -82 -72 -110 -77 -71 -71 -61 -33 -35 -62 -13 -0 -0 -0 -0 -0 -9 -6 -5 -0
Wind_Speed
nan nan nan nan nan nan nan nan nan nan nan nan 5 14 6 13 20 25 29 29 28 20 20 26 29 28 28 26 23 18 15 14 10 7 5 7 12 14 14 9 7 8 9 10
nan nan nan nan nan nan nan nan nan nan nan nan nan nan nan 8 17 23 26 29 29 22 17 19 22 nan 29 29 27 22 19 13 14 11 11 12 10 9 10 7 9 11 13 13
nan nan nan nan nan nan nan nan nan nan nan nan nan nan nan 3 7 16 19 22 27 22 22 19 21 23 24 24 24 24 23 19 17 15 12 9 7 7 9 9 9 10 11 11
nan nan nan nan nan nan nan nan nan nan nan nan nan nan 8 nan 4 9 20 29 23 25 25 17 17 18 18 19 17 19 17 17 14 13 11 11 5 5 6 6 6 7 10 9
nan nan nan nan nan nan nan nan nan nan nan nan nan nan nan nan 14 8 19 24 23 20 22 21 20 20 15 11 13 14 15 13 14 14 11 6 3 3 8 9 11 11 9 9
nan nan nan nan nan nan nan nan nan nan nan nan nan nan nan nan 5 9 11 17 24 19 19 19 18 20 18 15 12 13 16 15 14 12 9 8 7 8 10 12 12 15 15 11
nan nan nan nan nan nan nan nan nan nan nan nan nan nan 5 nan nan nan nan 7 16 17 19 23 22 22 20 19 18 16 14 14 13 12 9 8 6 9 12 16 16 18 17 nan
nan nan nan nan nan nan nan nan nan nan nan nan nan nan nan nan nan nan nan 2 8 11 18 24 23 22 21 19 18 18 16 13 13 15 11 8 10 9 11 14 15 17 18 19
nan nan nan nan nan nan nan nan nan nan nan nan nan nan nan nan nan nan nan nan 6 9 17 23 21 22 20 21 20 17 17 14 10 12 13 10 11 12 13 15 14 15 16 17
nan nan nan nan nan nan nan nan nan nan nan nan nan nan nan 6 8 nan nan nan 6 2 10 22 22 25 25 23 17 15 14 16 13 12 13 12 12 12 15 16 17 17 19 16
nan nan nan nan nan nan nan nan nan nan nan nan nan nan 4 5 8 nan nan 6 14 6 13 22 24 30 33 22 17 18 16 19 21 15 15 13 13 13 16 16 18 19 20 20
nan nan nan nan nan nan nan nan nan nan nan nan nan nan nan nan 14 nan 13 12 13 10 16 21 24 26 28 18 18 21 21 20 21 20 19 14 14 16 16 17 20 21 24 22
nan nan nan nan nan nan nan nan nan nan nan nan nan nan nan nan 17 16 15 9 11 17 19 17 21 18 27 20 24 32 35 35 39 30 21 20 18 20 18 17 19 25 24 25
nan nan nan nan nan nan nan nan nan nan nan nan nan nan nan nan 19 20 10 9 12 16 19 22 22 24 27 27 29 39 42 42 44 45 35 24 22 23 23 19 22 25 24 21
nan nan nan nan nan nan nan nan nan nan nan nan nan nan 8 7 nan nan 9 11 14 17 18 21 20 27 28 30 31 39 44 45 39 51 55 37 34 22 24 22 23 26 23 nan
nan nan nan nan nan nan nan nan nan nan nan nan nan nan nan nan nan 12 8 14 16 13 19 19 26 35 32 32 34 35 40 41 nan nan 26 27 27 14 23 28 29 24 27 nan
nan 26 24 nan nan nan nan nan nan nan nan nan nan nan 16 6 12 17 12 8 10 21 19 21 29 33 31 37 32 33 35 nan nan nan nan 19 16 15 17 21 29 26 nan nan
32 32 31 nan nan nan nan nan nan nan nan nan nan nan 14 10 12 17 17 13 19 25 28 31 30 31 31 31 30 32 24 23 17 nan nan 17 20 19 21 17 19 nan nan nan
26 30 30 31 28 nan nan nan nan nan nan nan nan 25 20 20 16 6 23 18 24 26 28 33 32 37 35 34 34 36 48 13 15 17 18 17 20 22 22 21 22 25 nan nan
nan 27 28 nan nan nan nan 31 33 34 nan 23 18 17 26 30 20 16 16 16 25 33 37 37 40 39 43 44 46 38 40 17 18 20 17 18 23 22 23 24 25 nan nan nan
20 22 18 22 30 nan nan 43 38 nan 24 21 14 13 19 26 27 18 19 20 28 34 37 40 41 41 45 41 45 37 33 28 20 22 24 24 23 25 26 28 nan nan nan nan
19 19 20 25 24 nan 34 37 31 26 20 18 16 26 24 24 27 27 23 25 28 34 38 40 41 42 40 33 29 27 26 29 29 30 32 28 28 26 nan nan nan nan nan nan
22 21 21 16 18 27 25 19 18 20 21 17 17 27 31 31 28 29 31 28 29 30 34 33 38 44 41 30 35 41 32 32 33 33 32 31 nan nan nan nan nan nan nan nan
22 nan 24 20 20 21 24 nan nan 22 22 21 13 23 22 20 32 34 30 32 35 37 34 35 39 43 42 49 48 40 33 32 35 34 32 32 nan nan nan nan nan nan nan nan
26 25 21 14 14 21 nan nan 27 31 33 28 18 24 26 26 25 31 32 40 39 42 36 33 35 37 46 40 32 33 32 35 36 36 34 nan nan nan nan nan nan nan nan nan
nan 16 19 21 24 21 17 nan nan 28 33 38 27 26 26 27 31 33 38 32 39 37 35 36 34 39 37 29 33 35 33 36 40 nan nan nan nan nan nan nan nan nan nan nan
Wind_Direction
nan nan nan nan nan nan nan nan nan nan nan nan 66 93 123 48 41 27 17 12 21 29 35 38 38 35 34 33 41 37 45 57 64 88 70 55 56 57 42 31 36 42 25 351
nan nan nan nan nan nan nan nan nan nan nan nan nan nan nan 43 42 29 15 8 16 29 27 33 35 nan 36 38 42 43 46 57 67 71 70 68 51 29 33 24 28 26 18 10
nan nan nan nan nan nan nan nan nan nan nan nan nan nan nan 204 35 27 19 4 11 22 32 32 31 27 32 37 34 39 43 51 58 54 52 35 27 6 2 360 13 17 13 5
nan nan nan nan nan nan nan nan nan nan nan nan nan nan 243 nan 237 26 11 6 8 9 30 26 20 20 20 19 24 32 27 27 40 36 36 36 32 20 323 336 335 343 349 341
nan nan nan nan nan nan nan nan nan nan nan nan nan nan nan nan 223 291 1 10 357 357 18 26 25 16 9 348 354 360 7 9 15 14 12 10 338 281 294 297 316 326 336 320
nan nan nan nan nan nan nan nan nan nan nan nan nan nan nan nan 239 219 319 356 352 347 348 1 351 338 342 336 320 329 335 341 349 352 354 343 345 315 308 311 318 315 307 305
nan nan nan nan nan nan nan nan nan nan nan nan nan nan 235 nan nan nan nan 324 351 344 348 349 346 337 329 332 333 321 325 329 334 332 328 327 329 320 329 327 324 315 301 nan
nan nan nan nan nan nan nan nan nan nan nan nan nan nan nan nan nan nan nan 133 299 340 353 354 351 351 344 338 338 328 323 315 316 321 320 311 309 321 335 333 328 321 313 293
nan nan nan nan nan nan nan nan nan nan nan nan nan nan nan nan nan nan nan nan 255 342 350 348 345 345 351 334 333 331 320 316 312 309 302 306 303 319 323 318 323 318 318 306
nan nan nan nan nan nan nan nan nan nan nan nan nan nan nan 212 126 nan nan nan 224 279 332 338 337 339 339 320 319 316 310 310 301 290 297 304 307 316 321 316 318 323 321 321
nan nan nan nan nan nan nan nan nan nan nan nan nan nan 254 192 153 nan nan 142 171 230 297 310 315 322 326 330 309 309 303 304 302 295 293 303 306 306 308 312 314 319 312 308
nan nan nan nan nan nan nan nan nan nan nan nan nan nan nan nan 154 nan 152 181 215 258 288 303 314 309 312 323 289 280 275 278 279 279 290 289 288 294 295 304 308 304 296 290
nan nan nan nan nan nan nan nan nan nan nan nan nan nan nan nan 164 195 170 173 224 283 299 309 316 322 310 276 276 277 277 274 271 235 247 264 268 276 284 297 302 296 301 289
nan nan nan nan nan nan nan nan nan nan nan nan nan nan nan nan 178 181 180 215 234 282 298 310 306 315 318 295 280 273 275 270 267 281 248 237 237 260 274 283 299 299 298 297
nan nan nan nan nan nan nan nan nan nan nan nan nan nan 256 204 nan nan 183 269 281 290 288 297 302 309 313 301 290 274 268 266 276 292 271 241 228 229 269 272 279 289 292 nan
nan nan nan nan nan nan nan nan nan nan nan nan nan nan nan nan nan 170 205 289 297 274 282 288 303 313 311 293 279 283 284 274 nan nan 5 14 251 250 294 270 261 271 288 nan
nan 264 274 nan nan nan nan nan nan nan nan nan nan nan 259 272 192 180 204 248 286 275 293 305 317 316 315 304 312 303 304 nan nan nan nan 13 356 352 336 279 263 257 nan nan
253 254 249 nan nan nan nan nan nan nan nan nan nan nan 256 255 225 223 232 259 277 282 295 304 310 313 305 315 315 282 248 297 342 nan nan 358 345 328 316 310 294 nan nan nan
251 249 245 242 260 nan nan nan nan nan nan nan nan 256 246 246 224 208 280 257 271 269 282 291 299 302 310 311 309 297 309 300 342 352 354 330 331 328 305 294 298 302 nan nan
nan 246 247 nan nan nan nan 259 262 277 nan 292 297 269 245 256 264 292 261 253 270 281 288 293 296 298 294 301 319 318 322 359 351 341 336 318 315 312 307 305 301 nan nan nan
262 256 252 248 239 nan nan 255 264 nan 257 216 235 233 253 258 245 244 239 246 253 272 287 295 297 301 310 322 324 327 342 320 320 314 307 309 309 308 302 301 nan nan nan nan
248 255 258 257 251 nan 254 262 260 243 224 221 236 217 213 236 242 233 232 237 251 272 284 297 302 305 304 311 315 318 294 291 302 311 305 298 297 294 nan nan nan nan nan nan
247 251 247 261 250 252 241 233 224 215 200 223 238 221 224 228 229 234 228 235 253 275 284 301 300 296 290 291 295 288 292 299 302 299 297 297 nan nan nan nan nan nan nan nan
252 nan 252 250 246 240 224 nan nan 220 202 205 223 214 226 221 236 247 242 242 243 250 264 273 291 289 280 282 288 285 288 296 294 295 296 297 nan nan nan nan nan nan nan nan
252 270 249 229 204 235 nan nan 224 212 203 202 224 230 228 230 244 253 252 248 249 246 249 264 289 296 295 288 279 278 286 289 289 290 290 nan nan nan nan nan nan nan nan nan
nan 249 231 224 234 240 228 nan nan 226 214 207 211 231 226 249 261 267 253 256 256 261 265 268 283 286 278 273 273 279 284 289 294 nan nan nan nan nan nan nan nan nan nan nan